Meadow Lake, CO

3:33 PM MDT on June 27, 2017 (GMT -0600)
Meadow Lake

Weather History for KFLY - August, 2014

Change the Weather History Date:

Tuesday, August 12, 2014

  Actual Average (KCOS) Record (KCOS)
Temperature  
Mean Temperature 66 °F -  
Max Temperature 82 °F 81 °F 94 °F (1959)
Min Temperature 50 °F 56 °F 44 °F (1903)
Cooling Degree Days 1    
Growing Degree Days 16 (Base 50)    
Moisture  
Dew Point 47 °F    
Average Humidity 53    
Maximum Humidity 88    
Minimum Humidity 19    
Precipitation  
Precipitation 0.00 in - - ()
Sea Level Pressure  
Sea Level Pressure 30.39 in    
Wind  
Wind Speed 5 mph (SSW)    
Max Wind Speed 12 mph    
Max Gust Speed 17 mph    
Visibility 10 miles    
Events      
Averages and records for this station are not official NWS values.
T = Trace of Precipitation, MM = Missing Value Source: NWS Daily Summary

Daily Weather History Graph

Daily Weather History Graph

Search for Another Location

Airport or City:

Trip Planner

Search our weather history database for the weather conditions in past years. The results will help you decide how hot, cold, wet, or windy it might be!

Date:

Astronomy

Aug. 12, 2014 Rise Set
Actual Time 6:09 AM MDT 7:56 PM MDT
Civil Twilight 5:40 AM MDT 8:25 PM MDT
Nautical Twilight 5:05 AM MDT 9:00 PM MDT
Astronomical Twilight 4:28 AM MDT 9:37 PM MDT
Moon 9:07 PM MDT (8/12) 8:27 AM MDT (8/12)
Length of Visible Light 14h 45m
Length of Day
13h 47m
Waning Gibbous, 94% of the Moon is Illuminated
Aug 12
Waning Gibbous
Aug 17
Last Quarter
Aug 25
New
Sep 2
First Quarter
Sep 8
Full

Hourly Weather History & Observations

Time (MDT) Temp. Dew Point Humidity Pressure Visibility Wind Dir Wind Speed Gust Speed Precip Events Conditions
12:16 AM 59.5 °F 48.2 °F 66% 30.45 in 10.0 mi SSW 6.9 mph - N/A   Clear
12:36 AM 59.2 °F 48.2 °F 67% 30.45 in 10.0 mi SSW 4.6 mph - N/A   Clear
12:56 AM 57.4 °F 47.8 °F 70% 30.45 in 10.0 mi WSW 5.8 mph - N/A   Clear
1:16 AM 56.8 °F 47.8 °F 72% 30.44 in 10.0 mi WSW 5.8 mph - N/A   Clear
1:36 AM 58.3 °F 47.5 °F 67% 30.44 in 10.0 mi SW 5.8 mph - N/A   Clear
1:56 AM 57.6 °F 47.3 °F 69% 30.44 in 10.0 mi SW 4.6 mph - N/A   Clear
2:16 AM 56.5 °F 47.3 °F 71% 30.44 in 10.0 mi WSW 4.6 mph - N/A   Clear
2:36 AM 56.3 °F 47.1 °F 71% 30.43 in 10.0 mi Calm Calm - N/A   Clear
2:56 AM 53.4 °F 46.9 °F 79% 30.44 in 10.0 mi Calm Calm - N/A   Clear
3:36 AM 53.1 °F 47.1 °F 80% 30.44 in 10.0 mi Calm Calm - N/A   Clear
3:56 AM 52.3 °F 47.3 °F 83% 30.43 in 10.0 mi NW 4.6 mph - N/A   Clear
4:16 AM 52.2 °F 47.5 °F 84% 30.43 in 10.0 mi NW 5.8 mph - N/A   Clear
4:36 AM 52.5 °F 47.3 °F 82% 30.42 in 10.0 mi NNW 4.6 mph - N/A   Clear
4:56 AM 50.9 °F 47.5 °F 88% 30.42 in 10.0 mi NW 5.8 mph - N/A   Clear
5:16 AM 51.4 °F 47.3 °F 86% 30.42 in 10.0 mi WNW 5.8 mph - N/A   Clear
5:36 AM 52.2 °F 46.8 °F 82% 30.41 in 10.0 mi WNW 4.6 mph - N/A   Clear
5:56 AM 52.7 °F 46.4 °F 79% 30.40 in 10.0 mi NW 4.6 mph - N/A   Clear
6:16 AM 52.2 °F 46.8 °F 82% 30.41 in 10.0 mi NW 5.8 mph - N/A   Clear
6:36 AM 52.7 °F 46.9 °F 81% 30.42 in 10.0 mi WNW 3.5 mph - N/A   Clear
6:56 AM 55.8 °F 49.1 °F 78% 30.42 in 10.0 mi Calm Calm - N/A   Clear
7:16 AM 59.4 °F 50.7 °F 73% 30.42 in 10.0 mi Calm Calm - N/A   Clear
7:36 AM 63.1 °F 51.6 °F 66% 30.42 in 10.0 mi Calm Calm - N/A   Clear
7:56 AM 66.7 °F 49.8 °F 54% 30.41 in 10.0 mi Calm Calm - N/A   Clear
8:16 AM 68.2 °F 49.6 °F 51% 30.42 in 10.0 mi SSW 3.5 mph - N/A   Clear
8:36 AM 68.9 °F 49.1 °F 49% 30.42 in 10.0 mi SSW 4.6 mph - N/A   Clear
8:56 AM 70.5 °F 50.0 °F 48% 30.42 in 10.0 mi SW 5.8 mph - N/A   Clear
9:16 AM 71.4 °F 49.6 °F 46% 30.42 in 10.0 mi SW 5.8 mph - N/A   Clear
9:36 AM 72.5 °F 47.7 °F 41% 30.41 in 10.0 mi SSW 3.5 mph - N/A   Clear
9:56 AM 72.7 °F 46.6 °F 39% 30.41 in 10.0 mi South 4.6 mph - N/A   Clear
11:36 AM 76.8 °F 48.0 °F 36% 30.40 in 10.0 mi ESE 5.8 mph - N/A   Clear
11:55 AM 77.0 °F 46.9 °F 34% 30.40 in 10.0 mi South 4.6 mph - N/A   Clear
12:15 PM 77.2 °F 46.2 °F 33% 30.40 in 10.0 mi Calm Calm - N/A   Clear
12:35 PM 78.1 °F 48.0 °F 35% 30.39 in 10.0 mi SE 5.8 mph - N/A   Clear
12:55 PM 78.8 °F 47.5 °F 33% 30.39 in 10.0 mi East 8.1 mph - N/A   Clear
1:15 PM 79.3 °F 47.1 °F 32% 30.39 in 10.0 mi Calm Calm - N/A   Clear
1:35 PM 79.0 °F 46.2 °F 31% 30.39 in 10.0 mi Calm Calm - N/A   Clear
1:55 PM 80.4 °F 47.1 °F 31% 30.38 in 10.0 mi Calm Calm - N/A   Clear
2:35 PM 81.3 °F 46.8 °F 30% 30.37 in 10.0 mi ENE 5.8 mph - N/A   Clear
2:55 PM 81.9 °F 45.0 °F 27% 30.37 in 10.0 mi NE 6.9 mph - N/A   Clear
3:15 PM 82.0 °F 42.8 °F 25% 30.36 in 10.0 mi NE 10.4 mph - N/A   Clear
3:35 PM 82.2 °F 43.7 °F 26% 30.35 in 10.0 mi NNE 9.2 mph - N/A   Clear
3:55 PM 81.7 °F 43.5 °F 26% 30.35 in 10.0 mi ENE 10.4 mph 17.3 mph N/A   Clear
4:15 PM 81.1 °F 41.5 °F 24% 30.34 in 10.0 mi NE 8.1 mph - N/A   Clear
4:35 PM 81.7 °F 42.1 °F 25% 30.34 in 10.0 mi ENE 11.5 mph - N/A   Clear
4:55 PM 81.0 °F 39.6 °F 23% 30.34 in 10.0 mi ENE 10.4 mph - N/A   Clear
5:15 PM 81.0 °F 34.9 °F 19% 30.34 in 10.0 mi ENE 6.9 mph - N/A   Clear
5:55 PM 79.5 °F 44.6 °F 29% 30.33 in 10.0 mi East 8.1 mph 17.3 mph N/A   Clear
6:15 PM 78.8 °F 44.8 °F 30% 30.33 in 10.0 mi SE 9.2 mph - N/A   Clear
6:36 PM 77.9 °F 45.0 °F 31% 30.33 in 10.0 mi SSE 8.1 mph - N/A   Clear
6:55 PM 76.5 °F 47.5 °F 36% 30.33 in 10.0 mi ESE 6.9 mph - N/A   Clear
7:15 PM 73.9 °F 49.8 °F 43% 30.33 in 10.0 mi ESE 5.8 mph - N/A   Clear
7:36 PM 70.5 °F 48.0 °F 45% 30.34 in 10.0 mi ESE 6.9 mph - N/A   Clear
7:56 PM 67.8 °F 49.1 °F 51% 30.34 in 10.0 mi SSE 3.5 mph - N/A   Clear
8:16 PM 68.0 °F 48.2 °F 49% 30.35 in 10.0 mi Calm Calm - N/A   Clear
8:55 PM 65.7 °F 49.3 °F 55% 30.36 in 10.0 mi Calm Calm - N/A   Clear
9:15 PM 65.5 °F 49.1 °F 55% 30.37 in 10.0 mi Calm Calm - N/A   Clear
9:35 PM 66.2 °F 47.7 °F 51% 30.38 in 10.0 mi South 3.5 mph - N/A   Clear
9:56 PM 65.5 °F 47.3 °F 52% 30.38 in 10.0 mi SSW 3.5 mph - N/A   Clear
10:15 PM 63.1 °F 48.4 °F 59% 30.38 in 10.0 mi WSW 5.8 mph - N/A   Clear
10:55 PM 61.5 °F 48.6 °F 62% 30.37 in 10.0 mi WSW 3.5 mph - N/A   Clear
11:15 PM 62.2 °F 47.5 °F 58% 30.37 in 10.0 mi Calm Calm - N/A   Clear
11:35 PM 61.7 °F 47.1 °F 59% 30.37 in 10.0 mi Calm Calm - N/A   Clear
11:55 PM 61.5 °F 46.6 °F 58% 30.36 in 10.0 mi SSW 4.6 mph - N/A   Clear